Location: Abraham Lincoln Continuation High School
(33.9711°N, 117.3662°W)
Time: 10:03:05
(UTC+00:00)

X-37B - Pass Details

Date: 23 January 2021
Orbit: 383 x 391 km, 45.0° (Epoch: 27 February)

Event Time Altitude Azimuth Distance (km) Brightness Sun altitude
Rises 02:24:41 0° 289° (WNW) 2,270 5.5 -15.4°
Reaches altitude 10° 02:27:34 10° 318° (NW) 1,418 3.8 -16.0°
Maximum altitude 02:29:15 13° 350° (N) 1,233 3.1 -16.3°
Enters shadow 02:30:00 13° 5° (N) 1,274 3.0 -16.5°
